sat.trackr.live / text

‹ back to catalog

STARLINK-37063

NORAD 68079 · 2026-042L

PAYLOAD ACTIVE UNKNOWN

§ Identity

Operator
Country
US
Launch date
2026-03-04
Launch site
AFETR
Launch vehicle
Mass (kg)
RCS (m²)

Purposes: comms

External: N2YO · Heavens-Above · Gunter

§ Orbital elements

Epoch: 2026-09-19T17:53:30.223680Z

Period
93.85 min
Inclination
53.1573°
Eccentricity
0.0001352
Mean motion
15.34397344 rev/d
Perigee alt
461.8 km
Apogee alt
463.6 km
Semi-major
6,840.8 km
B*
1.3015e-3
RAAN
353.2574°
Arg perigee
93.2965°
Mean anomaly
266.8192°
Rev number
3,207

§ Raw data

STARLINK-370631 68079U 26042L   26262.74548870  .00043851  00000+0  13015-2 0  99972 68079  53.1573 353.2574 0001352  93.2965 266.8192 15.34397344 32079

JSON: /api/v1/satellites/68079 · /tle

For live sub-satellite position, see the globe view (requires WebGL).

§ Visibility from observer

Set your observer location to see the next 7 days of passes ≥ 10°. The values pass through the URL so the page stays shareable.

No JS? Fill the form by hand. The geolocation button needs JavaScript.